Time[GMT],gps_lat[degrees_north](-3m),gps_lon[degrees_west](-3m),gps_2_lat[degrees_north](-3m),gps_2_lon[degrees_west](-3m)
2022-10-17 17:00,44.102817535,-68.113586426,44.10,-68.11
2022-10-17 18:00,44.102783203,-68.113533020,44.10,-68.11
2022-10-17 19:00,44.102748871,-68.113533020,44.10,-68.11
2022-10-17 20:00,44.102664948,-68.113616943,44.10,-68.11
2022-10-17 21:00,44.102664948,-68.113616943,44.10,-68.11
2022-10-17 22:00,44.102634430,-68.113670349,44.10,-68.11
2022-10-17 23:00,44.102649689,-68.113700867,,-68.11
2022-10-18 00:00,44.102531433,-68.113670349,,-68.11
2022-10-18 01:00,44.102550507,-68.113731384,,-68.11
2022-10-18 02:00,44.102500916,-68.113784790,44.10,-68.11
2022-10-18 03:00,44.102584839,-68.113685608,44.10,-68.11
2022-10-18 04:00,44.102615356,-68.113746643,44.10,-68.11
2022-10-18 05:00,44.102718353,-68.113784790,44.10,
2022-10-18 06:00,44.102718353,-68.113647461,44.10,-68.10
2022-10-18 07:00,44.102733612,-68.113716125,44.10,-68.11
2022-10-18 08:00,44.102783203,-68.113731384,44.10,-68.11
2022-10-18 09:00,44.102783203,-68.113716125,44.10,-68.11
2022-10-18 10:00,44.102798462,-68.113685608,44.10,-68.11
2022-10-18 11:00,44.102699280,-68.113716125,44.10,-68.11
2022-10-18 12:00,44.102565765,-68.113784790,44.10,-68.11
2022-10-18 13:00,44.102516174,-68.113731384,44.10,-68.11
2022-10-18 14:00,44.102699280,-68.113800049,44.10,-68.11
2022-10-18 15:00,44.102718353,-68.113830566,44.10,-68.11
2022-10-18 16:00,44.102798462,-68.113784790,44.10,
2022-10-18 17:00,44.102767944,-68.113647461,44.10,
2022-10-18 18:00,44.102931976,-68.113746643,44.10,
2022-10-18 19:00,44.102966309,-68.113632202,44.10,
2022-10-18 20:00,44.102966309,-68.113616943,44.10,
2022-10-18 21:00,44.102901459,-68.113731384,44.10,
2022-10-18 22:00,44.102832794,-68.113815308,,
2022-10-18 23:00,44.102584839,-68.113700867,,
2022-10-19 00:00,44.102783203,-68.113883972,,
2022-10-19 01:00,44.102718353,-68.113883972,44.10,-68.11
2022-10-19 02:00,44.102684021,-68.113853455,44.10,-68.10
2022-10-19 03:00,44.102783203,-68.113853455,44.10,-68.11
2022-10-19 04:00,44.102901459,-68.113815308,44.10,-68.11
2022-10-19 05:00,44.102981567,-68.113716125,44.10,-68.11
2022-10-19 06:00,44.102767944,-68.113533020,44.10,-68.11
2022-10-19 07:00,44.103034973,-68.113563538,44.10,-68.11
2022-10-19 08:00,44.103065491,-68.113449097,44.10,
2022-10-19 09:00,44.102981567,-68.113449097,44.10,-68.11
2022-10-19 10:00,44.102882385,-68.113502502,44.10,-68.11
2022-10-19 11:00,44.102767944,-68.113464355,44.10,-68.11
2022-10-19 12:00,44.102432251,-68.113502502,44.10,-68.11
2022-10-19 13:00,44.102298737,-68.113586426,44.10,-68.11
2022-10-19 14:00,44.102317810,-68.113563538,44.10,-68.11
2022-10-19 15:00,44.102382660,-68.113632202,44.10,-68.11
2022-10-19 16:00,44.102348328,-68.113616943,44.10,-68.11
2022-10-19 17:00,44.102615356,-68.113319397,44.10,-68.11
2022-10-19 18:00,44.102584839,-68.113349915,44.10,-68.11
2022-10-19 19:00,44.102664948,-68.113281250,44.10,-68.09
2022-10-19 20:00,44.102748871,-68.113235474,44.10,-68.11
2022-10-19 21:00,44.102733612,-68.113281250,44.10,-68.11
2022-10-19 22:00,44.102748871,-68.113197327,44.10,-68.11
2022-10-19 23:00,44.102600098,-68.113281250,44.10,-68.11
2022-10-20 00:00,44.102531433,-68.113349915,44.10,-68.11
2022-10-20 01:00,44.102432251,-68.113380432,44.10,-68.11
2022-10-20 02:00,44.102416992,-68.113281250,44.10,-68.11
2022-10-20 03:00,44.102382660,-68.113319397,44.10,-68.11
2022-10-20 04:00,44.102382660,-68.113166809,44.10,-68.11
2022-10-20 05:00,44.102401733,-68.113182068,44.10,-68.11
2022-10-20 06:00,44.102550507,-68.113113403,44.10,-68.11
2022-10-20 07:00,44.102649689,-68.112998962,44.10,-68.11
2022-10-20 08:00,44.102798462,-68.113037109,44.10,-68.11
2022-10-20 09:00,44.102783203,-68.112998962,44.10,-68.11
2022-10-20 10:00,44.102767944,-68.112983704,44.10,-68.11
2022-10-20 11:00,44.102733612,-68.112998962,44.10,-68.11
2022-10-20 12:00,44.102634430,-68.112983704,44.10,-68.11
2022-10-20 13:00,44.102565765,-68.112998962,44.10,-68.11
2022-10-20 14:00,44.102565765,-68.112968445,44.10,
2022-10-20 15:00,44.102565765,-68.112983704,,
2022-10-20 16:00,44.102565765,-68.113037109,,-68.11
2022-10-20 17:00,44.103218079,-68.112716675,,-68.11
2022-10-20 18:00,44.102767944,-68.112998962,44.10,-68.11
2022-10-20 19:00,44.102882385,-68.112953186,44.10,-68.11
2022-10-20 20:00,44.102931976,-68.112930298,44.10,-68.11
2022-10-20 21:00,44.102931976,-68.112998962,44.10,-68.11
2022-10-20 22:00,44.102951050,-68.112953186,44.10,
2022-10-20 23:00,44.102916718,-68.112983704,44.10,
2022-10-21 00:00,44.102882385,-68.112983704,44.10,
2022-10-21 01:00,44.102783203,-68.112953186,,-68.11
2022-10-21 02:00,44.102664948,-68.112915039,,-68.11
2022-10-21 03:00,44.102882385,-68.113166809,44.10,-68.11
2022-10-21 04:00,44.102615356,-68.112915039,44.10,-68.11
2022-10-21 05:00,44.102718353,-68.112884521,44.10,-68.11
2022-10-21 06:00,44.102748871,-68.112831116,44.10,-68.11
2022-10-21 07:00,44.102817535,-68.112815857,44.10,
2022-10-21 08:00,44.102798462,-68.112915039,44.10,
2022-10-21 09:00,44.102916718,-68.112983704,44.10,
2022-10-21 10:00,44.102867126,-68.112968445,44.10,
2022-10-21 11:00,44.102851868,-68.113098145,44.10,-68.11
2022-10-21 12:00,44.102931976,-68.113067627,44.10,-68.11
2022-10-21 13:00,44.102798462,-68.113265991,44.10,-68.11
2022-10-21 14:00,44.102664948,-68.113281250,44.10,-68.11
2022-10-21 15:00,44.102584839,-68.113418579,44.10,-68.11
2022-10-21 16:00,44.102615356,-68.113449097,44.10,-68.11
2022-10-21 17:00,44.102584839,-68.113433838,44.10,-68.11
2022-10-21 18:00,44.102699280,-68.113296509,44.10,-68.11
2022-10-21 19:00,44.102718353,-68.113166809,,-68.11
2022-10-21 20:00,44.102867126,-68.112983704,44.10,-68.11
2022-10-21 21:00,44.102867126,-68.113014221,44.10,-68.11
2022-10-21 22:00,44.102901459,-68.113098145,44.10,-68.11
2022-10-21 23:00,44.102916718,-68.113067627,44.10,-68.11
2022-10-22 00:00,44.102867126,-68.113082886,44.10,-68.11
2022-10-22 01:00,44.102718353,-68.113082886,,-68.11
2022-10-22 02:00,44.102699280,-68.113136292,,-68.11
2022-10-22 03:00,44.102600098,-68.113250732,,-68.11
2022-10-22 04:00,44.102531433,-68.113418579,44.10,-68.11
2022-10-22 05:00,44.102550507,-68.113281250,44.10,-68.11
2022-10-22 06:00,44.102615356,-68.113319397,44.10,-68.11
2022-10-22 07:00,44.102600098,-68.113151550,44.10,-68.11
2022-10-22 08:00,44.102817535,-68.113151550,44.10,-68.10
2022-10-22 09:00,44.102966309,-68.113136292,44.10,-68.11
2022-10-22 10:00,44.102951050,-68.113151550,44.10,-68.11
2022-10-22 11:00,44.102966309,-68.113197327,44.10,-68.11
2022-10-22 12:00,44.102916718,-68.113113403,44.10,-68.11
2022-10-22 13:00,44.102882385,-68.113166809,44.10,-68.11
2022-10-22 14:00,44.102851868,-68.113182068,,
2022-10-22 15:00,44.102748871,-68.113182068,,
2022-10-22 16:00,44.102565765,-68.113334656,44.10,
2022-10-22 17:00,44.102600098,-68.113265991,44.10,
2022-10-22 18:00,44.102550507,-68.113265991,44.10,
2022-10-22 19:00,44.102565765,-68.113182068,44.10,
2022-10-22 20:00,44.102733612,-68.113166809,44.10,
2022-10-22 21:00,44.102233887,-68.113563538,44.10,
2022-10-22 22:00,44.102916718,-68.113113403,44.10,
2022-10-22 23:00,44.102867126,-68.113166809,44.10,
2022-10-23 00:00,44.102867126,-68.113220215,44.10,
2022-10-23 01:00,44.102867126,-68.113235474,44.10,
2022-10-23 02:00,44.102817535,-68.113220215,44.10,
2022-10-23 03:00,44.102684021,-68.113296509,44.10,
2022-10-23 04:00,44.102500916,-68.113403320,44.10,
2022-10-23 05:00,44.102432251,-68.113418579,44.10,
2022-10-23 06:00,44.102382660,-68.113380432,44.10,-68.11
2022-10-23 07:00,44.102416992,-68.113418579,44.10,-68.11
2022-10-23 08:00,44.102516174,-68.113449097,44.10,-68.11
2022-10-23 09:00,44.102634430,-68.113433838,44.10,-68.11
2022-10-23 10:00,44.102748871,-68.113319397,44.10,-68.11
2022-10-23 11:00,44.102748871,-68.113418579,44.10,-68.11
2022-10-23 12:00,44.102748871,-68.113349915,44.10,-68.11
2022-10-23 13:00,44.102649689,-68.113365173,44.10,-68.11
2022-10-23 14:00,44.102634430,-68.113365173,44.10,-68.11
2022-10-23 15:00,44.102550507,-68.113464355,44.10,-68.11
2022-10-23 16:00,44.102466583,-68.113464355,44.10,-68.11
2022-10-23 17:00,44.102466583,-68.113479614,44.10,-68.11
2022-10-23 18:00,44.102416992,-68.113449097,44.10,-68.11
2022-10-23 19:00,44.102401733,-68.113380432,44.10,
2022-10-23 20:00,44.102382660,-68.113319397,44.10,
2022-10-23 21:00,44.102500916,-68.113334656,44.10,
2022-10-23 22:00,44.102649689,-68.113418579,44.10,
2022-10-23 23:00,44.102649689,-68.113418579,44.10,-68.11
2022-10-24 00:00,44.102649689,-68.113319397,44.10,-68.11
2022-10-24 01:00,44.102615356,-68.113349915,,
2022-10-24 02:00,44.102550507,-68.113449097,44.10,-68.11
2022-10-24 03:00,44.102466583,-68.113464355,,-68.11
2022-10-24 04:00,44.102416992,-68.113517761,44.10,-68.11
2022-10-24 05:00,44.102451324,-68.113586426,44.10,-68.11
2022-10-24 06:00,44.102333069,-68.113700867,44.10,-68.11
2022-10-24 07:00,44.102268219,-68.113883972,44.10,-68.11
2022-10-24 08:00,44.102268219,-68.113914490,44.10,-68.11
2022-10-24 09:00,44.102416992,-68.113883972,,-68.11
2022-10-24 10:00,44.102466583,-68.113815308,,-68.11
2022-10-24 11:00,44.102600098,-68.113784790,44.10,-68.11
2022-10-24 12:00,44.102516174,-68.113800049,44.10,-68.11
2022-10-24 13:00,44.102584839,-68.113716125,44.10,-68.11
2022-10-24 14:00,44.102500916,-68.113746643,44.10,-68.11
2022-10-24 15:00,44.102451324,-68.113815308,44.10,-68.11
2022-10-24 16:00,44.102382660,-68.113784790,44.10,-68.11
2022-10-24 17:00,44.102298737,-68.113784790,44.10,-68.11
2022-10-24 18:00,44.102233887,-68.113769531,44.10,-68.11
2022-10-24 19:00,44.102249146,-68.113800049,44.10,-68.11
2022-10-24 20:00,44.102214813,-68.113700867,44.10,
2022-10-24 21:00,44.102401733,-68.113784790,44.10,
2022-10-24 22:00,44.102550507,-68.113685608,44.10,
2022-10-24 23:00,44.102615356,-68.113700867,44.10,
2022-10-25 00:00,44.102649689,-68.113586426,44.10,
2022-10-25 01:00,44.102565765,-68.113616943,44.10,
2022-10-25 02:00,44.102500916,-68.113700867,44.10,-68.11
2022-10-25 03:00,44.102481842,-68.113670349,44.10,-68.11
2022-10-25 04:00,44.102382660,-68.113700867,44.10,-68.11
2022-10-25 05:00,44.102298737,-68.113731384,44.10,-68.11
2022-10-25 06:00,44.102333069,-68.113800049,44.10,-68.11
2022-10-25 07:00,44.102333069,-68.113769531,44.10,-68.11
2022-10-25 08:00,44.102367401,-68.113800049,44.10,
2022-10-25 09:00,44.102432251,-68.113746643,,
2022-10-25 10:00,44.102500916,-68.113670349,,
2022-10-25 11:00,44.102531433,-68.113586426,,
2022-10-25 12:00,44.102550507,-68.113517761,,-68.11
2022-10-25 13:00,44.102584839,-68.113403320,44.10,-68.11
2022-10-25 14:00,44.102584839,-68.113449097,44.10,-68.11
2022-10-25 15:00,44.102466583,-68.113533020,44.10,-68.11
2022-10-25 16:00,44.102401733,-68.113647461,44.10,-68.11
2022-10-25 17:00,44.102333069,-68.113716125,44.10,-68.11
2022-10-25 18:00,44.102249146,-68.113700867,44.10,-68.11
2022-10-25 19:00,44.102249146,-68.113716125,44.10,-68.11
2022-10-25 20:00,44.102249146,-68.113670349,44.10,-68.11
2022-10-25 21:00,44.102348328,-68.113700867,,-68.11
2022-10-25 22:00,44.102416992,-68.113670349,,
2022-10-25 23:00,44.102451324,-68.113616943,,-68.11
2022-10-26 00:00,44.102500916,-68.113586426,,-68.11
2022-10-26 01:00,44.102565765,-68.113586426,44.10,-68.11
2022-10-26 02:00,44.102615356,-68.113670349,44.10,-68.11
2022-10-26 03:00,44.102531433,-68.113632202,44.10,-68.11
2022-10-26 04:00,44.102432251,-68.113632202,44.10,-68.11
2022-10-26 05:00,44.102333069,-68.113647461,44.10,-68.11
2022-10-26 06:00,44.102268219,-68.113700867,44.10,-68.11
2022-10-26 07:00,44.102249146,-68.113769531,44.10,-68.11
2022-10-26 08:00,44.102283478,-68.113769531,44.10,
2022-10-26 09:00,44.102317810,-68.113784790,,
2022-10-26 10:00,44.102432251,-68.113746643,,
2022-10-26 11:00,44.102451324,-68.113731384,,
2022-10-26 12:00,44.102516174,-68.113769531,,
2022-10-26 13:00,44.102481842,-68.113731384,,
2022-10-26 14:00,44.102565765,-68.113716125,44.10,
2022-10-26 15:00,44.102565765,-68.113746643,44.10,
2022-10-26 16:00,44.102367401,-68.113769531,44.10,
2022-10-26 17:00,44.102298737,-68.113784790,44.10,
2022-10-26 18:00,44.102233887,-68.113868713,44.10,-68.11
2022-10-26 19:00,44.102317810,-68.113899231,44.10,-68.11
2022-10-26 20:00,44.102233887,-68.113868713,44.10,-68.11
2022-10-26 21:00,44.102268219,-68.113853455,44.10,-68.11
2022-10-26 22:00,44.102481842,-68.113899231,44.10,-68.11
2022-10-26 23:00,44.102531433,-68.113815308,44.10,-68.11
2022-10-27 00:00,44.102649689,-68.113632202,44.10,-68.11
2022-10-27 01:00,44.102699280,-68.113533020,44.10,-68.11
2022-10-27 02:00,44.102649689,-68.113464355,44.10,-68.11
2022-10-27 03:00,44.102584839,-68.113479614,44.10,-68.11
2022-10-27 04:00,44.102500916,-68.113502502,44.10,-68.11
2022-10-27 05:00,44.102333069,-68.113616943,,-68.11
2022-10-27 06:00,44.102249146,-68.113563538,44.10,-68.11
2022-10-27 07:00,44.102199554,-68.113586426,44.10,-68.11
2022-10-27 08:00,44.102149963,-68.113670349,44.10,-68.11
2022-10-27 09:00,44.102317810,-68.113563538,44.10,-68.11
2022-10-27 10:00,44.102298737,-68.113670349,44.10,-68.11
2022-10-27 11:00,44.102333069,-68.113464355,44.10,-68.11
2022-10-27 12:00,44.102451324,-68.113479614,44.10,-68.11
2022-10-27 13:00,44.102600098,-68.113479614,44.10,-68.11
2022-10-27 14:00,44.102684021,-68.113502502,44.10,-68.11
2022-10-27 15:00,44.102600098,-68.113449097,44.10,-68.11
2022-10-27 16:00,44.102600098,-68.113502502,44.10,-68.11
2022-10-27 17:00,44.102348328,-68.113464355,44.10,
2022-10-27 18:00,44.102268219,-68.113563538,44.10,-68.11
2022-10-27 19:00,44.102165222,-68.113418579,44.10,-68.11
2022-10-27 20:00,44.101932526,-68.113380432,44.10,-68.11
2022-10-27 21:00,44.102016449,-68.113365173,44.10,-68.11
2022-10-27 22:00,44.102001190,-68.113464355,44.10,-68.11
2022-10-27 23:00,44.102031708,-68.113464355,44.10,-68.11
2022-10-28 00:00,44.102031708,-68.113349915,44.10,-68.11
2022-10-28 01:00,44.102085114,-68.113296509,,-68.11
2022-10-28 02:00,44.102115631,-68.113319397,44.10,-68.11
2022-10-28 03:00,44.102134705,-68.113334656,44.10,-68.11
2022-10-28 04:00,44.102100372,-68.113403320,44.10,-68.11
2022-10-28 05:00,44.102115631,-68.113502502,44.10,-68.11
2022-10-28 06:00,44.102031708,-68.113616943,44.10,-68.11
2022-10-28 07:00,44.102016449,-68.113632202,44.10,-68.11
2022-10-28 08:00,44.101917267,-68.113670349,44.10,-68.11
2022-10-28 09:00,44.102001190,-68.113815308,44.10,-68.11
2022-10-28 10:00,44.102050781,-68.113685608,44.10,-68.11
2022-10-28 11:00,44.102050781,-68.113647461,44.10,-68.11
2022-10-28 12:00,44.102085114,-68.113616943,44.10,-68.11
2022-10-28 13:00,44.102199554,-68.113731384,,-68.11
2022-10-28 14:00,44.102283478,-68.113647461,,-68.11
2022-10-28 15:00,44.102382660,-68.113586426,44.10,-68.11
2022-10-28 16:00,44.102317810,-68.113365173,44.10,-68.11
2022-10-28 17:00,44.102233887,-68.113479614,44.10,-68.11
2022-10-28 18:00,44.102165222,-68.113517761,44.10,-68.11
2022-10-28 19:00,44.102134705,-68.113548279,44.10,-68.11
2022-10-28 20:00,44.102134705,-68.113647461,44.10,-68.11
2022-10-28 21:00,44.102134705,-68.113700867,44.10,-68.10
2022-10-28 22:00,44.102184296,-68.113700867,44.10,-68.11
2022-10-28 23:00,44.102184296,-68.113616943,44.10,-68.11
2022-10-29 00:00,44.102214813,-68.113548279,44.10,-68.11
2022-10-29 01:00,44.102283478,-68.113502502,44.10,-68.11
2022-10-29 02:00,44.102348328,-68.113586426,44.10,-68.11
2022-10-29 03:00,44.102382660,-68.113601685,44.10,-68.11
2022-10-29 04:00,44.102401733,-68.113601685,44.10,-68.11
2022-10-29 05:00,44.102298737,-68.113586426,44.10,
2022-10-29 06:00,44.102317810,-68.113586426,44.10,-68.11
2022-10-29 07:00,44.102283478,-68.113616943,44.10,-68.11
2022-10-29 08:00,44.102214813,-68.113731384,44.10,-68.11
2022-10-29 09:00,44.102165222,-68.113700867,44.10,-68.11
2022-10-29 10:00,44.102199554,-68.113670349,,
2022-10-29 11:00,44.102214813,-68.113716125,,
2022-10-29 12:00,44.102249146,-68.113670349,44.10,-68.11
2022-10-29 13:00,44.102333069,-68.113563538,44.10,-68.11
2022-10-29 14:00,44.102401733,-68.113586426,,
2022-10-29 15:00,44.102432251,-68.113479614,,
2022-10-29 16:00,44.102516174,-68.113464355,44.10,-68.11
2022-10-29 17:00,44.102500916,-68.113418579,,
2022-10-29 18:00,44.102416992,-68.113418579,44.10,-68.11
2022-10-29 19:00,44.102348328,-68.113418579,44.10,-68.11
2022-10-29 20:00,44.102233887,-68.113464355,,
2022-10-29 21:00,44.102165222,-68.113563538,44.10,-68.11
2022-10-29 22:00,44.102184296,-68.113601685,,
2022-10-29 23:00,44.102199554,-68.113601685,,
2022-10-30 00:00,44.102233887,-68.113334656,,
2022-10-30 01:00,44.102401733,-68.113296509,44.10,
2022-10-30 02:00,44.102500916,-68.113265991,44.10,-68.11
2022-10-30 03:00,44.102550507,-68.113166809,44.10,-68.11
2022-10-30 04:00,44.102531433,-68.113166809,44.10,-68.11
2022-10-30 05:00,44.102466583,-68.113197327,44.10,-68.11
2022-10-30 06:00,44.102500916,-68.113166809,44.10,-68.11
2022-10-30 07:00,44.102382660,-68.113296509,44.10,
2022-10-30 08:00,44.102165222,-68.113449097,44.10,-68.11
2022-10-30 09:00,44.102283478,-68.113433838,44.10,-68.11
2022-10-30 10:00,44.102199554,-68.113433838,44.10,-68.11
2022-10-30 11:00,44.102214813,-68.113464355,44.10,-68.11
2022-10-30 12:00,44.102199554,-68.113418579,44.10,-68.11
2022-10-30 13:00,44.102214813,-68.113403320,44.10,
2022-10-30 14:00,44.102367401,-68.113403320,44.10,
2022-10-30 15:00,44.102416992,-68.113380432,44.10,-68.11
2022-10-30 16:00,44.102531433,-68.113403320,44.10,-68.11
2022-10-30 17:00,44.102500916,-68.113418579,44.10,-68.11
2022-10-30 18:00,44.102466583,-68.113349915,44.10,-68.11
2022-10-30 19:00,44.102432251,-68.113380432,44.10,-68.11
2022-10-30 20:00,44.102333069,-68.113464355,44.10,-68.11
2022-10-30 21:00,44.102249146,-68.113517761,44.10,
2022-10-30 22:00,44.102249146,-68.113586426,44.10,
2022-10-30 23:00,44.102233887,-68.113616943,,
2022-10-31 00:00,44.102233887,-68.113449097,,
2022-10-31 01:00,44.102333069,-68.113365173,,
2022-10-31 02:00,44.102416992,-68.113418579,,
2022-10-31 03:00,44.102615356,-68.113197327,,
2022-10-31 04:00,44.102615356,-68.113250732,44.10,-68.11
2022-10-31 05:00,44.102565765,-68.113235474,44.10,-68.11
2022-10-31 06:00,44.102565765,-68.113250732,44.10,-68.11
2022-10-31 07:00,44.102516174,-68.113250732,44.10,-68.11
2022-10-31 08:00,44.102401733,-68.113319397,44.10,-68.11
2022-10-31 09:00,44.102268219,-68.113479614,,-68.11
2022-10-31 10:00,44.102249146,-68.113601685,44.10,-68.11
2022-10-31 11:00,44.102214813,-68.113586426,44.10,-68.11
2022-10-31 12:00,44.102199554,-68.113548279,44.10,-68.11
2022-10-31 13:00,44.102317810,-68.113433838,44.10,-68.11
2022-10-31 14:00,44.102416992,-68.113365173,44.10,-68.11
2022-10-31 15:00,44.102416992,-68.113182068,44.10,-68.11
2022-10-31 16:00,44.102481842,-68.113281250,44.10,-68.11
2022-10-31 17:00,44.102531433,-68.113265991,44.10,-68.11
2022-10-31 18:00,44.102600098,-68.113296509,44.10,-68.11
2022-10-31 19:00,44.102531433,-68.113319397,44.10,-68.11
2022-10-31 20:00,44.102481842,-68.113319397,44.10,-68.11
2022-10-31 21:00,44.102481842,-68.113334656,44.10,-68.11
2022-10-31 22:00,44.102214813,-68.113502502,,-68.11
2022-10-31 23:00,44.102233887,-68.113586426,44.10,-68.11
2022-11-01 00:00,44.102233887,-68.113586426,44.10,
2022-11-01 01:00,44.102249146,-68.113548279,44.10,-68.11
2022-11-01 02:00,44.102298737,-68.113464355,44.10,-68.11
2022-11-01 03:00,44.102516174,-68.113319397,44.10,-68.11
2022-11-01 04:00,44.102600098,-68.113250732,44.10,-68.11
2022-11-01 05:00,44.102634430,-68.113319397,44.10,-68.11
2022-11-01 06:00,44.102615356,-68.113334656,44.10,-68.11
2022-11-01 07:00,44.102584839,-68.113365173,44.10,-68.11
2022-11-01 08:00,44.102584839,-68.113433838,44.10,-68.11
2022-11-01 09:00,44.102531433,-68.113403320,,-68.11
2022-11-01 10:00,44.102401733,-68.113403320,,-68.11
2022-11-01 11:00,44.102283478,-68.113563538,44.10,-68.11
2022-11-01 12:00,44.102214813,-68.113548279,44.10,-68.11
2022-11-01 13:00,44.102165222,-68.113601685,44.10,-68.11
2022-11-01 14:00,44.102214813,-68.113533020,44.10,-68.11
2022-11-01 15:00,44.102268219,-68.113464355,44.10,-68.11
2022-11-01 16:00,44.102416992,-68.113548279,44.10,-68.11
2022-11-01 17:00,44.103183746,-68.112770081,44.10,-68.11
2022-11-01 18:00,44.102481842,-68.113418579,44.10,-68.11
2022-11-01 19:00,44.102516174,-68.113433838,44.10,-68.11
2022-11-01 20:00,44.102516174,-68.113449097,44.10,
2022-11-01 21:00,44.102500916,-68.113380432,44.10,
2022-11-01 22:00,44.102401733,-68.113479614,44.10,
2022-11-01 23:00,44.102249146,-68.113502502,44.10,
2022-11-02 00:00,44.102214813,-68.113502502,44.10,
2022-11-02 01:00,44.102233887,-68.113586426,44.10,-68.11
2022-11-02 02:00,44.102165222,-68.113548279,44.10,-68.11
2022-11-02 03:00,44.102214813,-68.113502502,44.10,-68.11
2022-11-02 04:00,44.102317810,-68.113517761,44.10,-68.11
2022-11-02 05:00,44.102333069,-68.113418579,44.10,-68.11
2022-11-02 06:00,44.102416992,-68.113365173,44.10,-68.11
2022-11-02 07:00,44.102432251,-68.113380432,44.10,
2022-11-02 08:00,44.102416992,-68.113365173,44.10,-68.11
2022-11-02 09:00,44.102268219,-68.113349915,44.10,-68.11
2022-11-02 10:00,44.102233887,-68.113380432,44.10,-68.11
2022-11-02 11:00,44.102100372,-68.113464355,44.10,-68.11
2022-11-02 12:00,44.102115631,-68.113502502,44.10,-68.11
2022-11-02 13:00,44.102100372,-68.113586426,44.10,-68.11
2022-11-02 14:00,44.102085114,-68.113632202,44.10,-68.11
2022-11-02 15:00,44.102085114,-68.113517761,,
2022-11-02 16:00,44.102184296,-68.113502502,,
2022-11-02 17:00,44.102249146,-68.113479614,44.10,
2022-11-02 18:00,44.102333069,-68.113479614,44.10,
2022-11-02 19:00,44.102382660,-68.113433838,44.10,
2022-11-02 20:00,44.102466583,-68.113403320,44.10,
2022-11-02 21:00,44.102401733,-68.113449097,44.10,-68.11
2022-11-02 22:00,44.102382660,-68.113433838,,-68.11
2022-11-02 23:00,44.102233887,-68.113380432,,-68.11
2022-11-03 00:00,44.102184296,-68.113433838,,-68.11
2022-11-03 01:00,44.102100372,-68.113449097,44.10,-68.11
2022-11-03 02:00,44.102134705,-68.113601685,44.10,-68.11
2022-11-03 03:00,44.102085114,-68.113464355,44.10,-68.11
2022-11-03 04:00,44.102115631,-68.113517761,44.10,
2022-11-03 05:00,44.102165222,-68.113449097,44.10,-68.11
2022-11-03 06:00,44.102184296,-68.113418579,44.10,-68.11
2022-11-03 07:00,44.102249146,-68.113365173,44.10,-68.11
2022-11-03 08:00,44.102481842,-68.113449097,44.10,-68.11
2022-11-03 09:00,44.102550507,-68.113433838,44.10,-68.11
2022-11-03 10:00,44.102531433,-68.113464355,44.10,-68.11
2022-11-03 11:00,44.102416992,-68.113502502,44.10,
2022-11-03 12:00,44.102298737,-68.113563538,44.10,
2022-11-03 13:00,44.102333069,-68.113586426,44.10,
2022-11-03 14:00,44.102317810,-68.113563538,44.10,
2022-11-03 15:00,44.102283478,-68.113586426,44.10,
2022-11-03 16:00,44.102333069,-68.113517761,,
2022-11-03 17:00,44.102432251,-68.113365173,,
2022-11-03 18:00,44.102550507,-68.113182068,,-68.11
2022-11-03 19:00,44.102615356,-68.113151550,44.10,-68.11
2022-11-03 20:00,44.102748871,-68.113067627,44.10,-68.11
2022-11-03 21:00,44.102851868,-68.112998962,44.10,-68.11
2022-11-03 22:00,44.102832794,-68.113037109,44.10,-68.11
2022-11-03 23:00,44.102817535,-68.112968445,44.10,-68.11
2022-11-04 00:00,44.102718353,-68.113014221,44.10,-68.11
2022-11-04 01:00,44.102664948,-68.113014221,44.10,-68.11
2022-11-04 02:00,44.102584839,-68.113014221,44.10,-68.11
2022-11-04 03:00,44.102550507,-68.112983704,44.10,-68.11
2022-11-04 04:00,44.102600098,-68.113037109,44.10,-68.11
2022-11-04 05:00,44.102664948,-68.112968445,44.10,-68.11
2022-11-04 06:00,44.102981567,-68.112632751,44.10,-68.11
2022-11-04 07:00,44.102718353,-68.112899780,,-68.11
2022-11-04 08:00,44.102798462,-68.112953186,,-68.11
2022-11-04 09:00,44.102851868,-68.112930298,,-68.11
2022-11-04 10:00,44.102851868,-68.112953186,44.10,-68.11
2022-11-04 11:00,44.102832794,-68.112968445,44.10,-68.11
2022-11-04 12:00,44.102798462,-68.112953186,44.10,